Weather History for KLHQ - October, 2011

Change the Weather History Date:

Thursday, October 20, 2011

  Actual Average Record
Temperature  
Mean Temperature 44 °F -  
Max Temperature 46 °F 59 °F 86 °F (1953)
Min Temperature 41 °F 36 °F 21 °F (1972)
Degree Days  
Heating Degree Days 22    
Moisture  
Dew Point 41 °F    
Average Humidity 89    
Maximum Humidity 93    
Minimum Humidity 85    
Precipitation  
Precipitation 0.36 in - - ()
Sea Level Pressure  
Sea Level Pressure 29.42 in    
Wind  
Wind Speed 15 mph (SW)    
Max Wind Speed 24 mph    
Max Gust Speed 37 mph    
Visibility 7 miles    
Events Rain    
Averages and records for this station are not official NWS values.
T = Trace of Precipitation, MM = Missing Value Source: NWS Daily Summary

Daily Weather History Graph

Daily Weather History Graph

Search for Another Location

Airport or City:

Trip Planner

Search our weather history database for the weather conditions in past years. The results will help you decide how hot, cold, wet, or windy it might be!

Date:

Astronomy

Oct. 20, 2011 Rise Set
Actual Time 7:45 AM EDT 6:44 PM EDT
Civil Twilight 7:18 AM EDT 7:11 PM EDT
Nautical Twilight 6:47 AM EDT 7:43 PM EDT
Astronomical Twilight 6:15 AM EDT 8:14 PM EDT
Moon 12:30 AM EDT (10/20) 2:51 PM EDT (10/20)
Length of Visible Light 11h 53m
Length of Day
10h 58m
Last Quarter, 44% of the Moon is Illuminated
Oct 20
Last Quarter
Oct 26
New
Nov 2
First Quarter
Nov 10
Full
Nov 18
Last Quarter

Hourly Weather History & Observations

Time (EDT) Temp. Windchill Dew Point Humidity Pressure Visibility Wind Dir Wind Speed Gust Speed Precip Events Conditions
12:53 AM 46.9 °F - 44.1 °F 90% 29.26 in 10.0 mi SSW 11.5 mph 20.7 mph N/A   Overcast
1:30 AM 46.4 °F 40.1 °F 42.8 °F 87% 29.27 in 10.0 mi SSW 15.0 mph 21.9 mph N/A   Overcast
1:44 AM 46.4 °F 40.1 °F 42.8 °F 87% 29.27 in 10.0 mi SSW 15.0 mph 25.3 mph N/A   Overcast
1:53 AM 46.9 °F - 43.0 °F 86% 29.26 in 10.0 mi SSW 16.1 mph 23.0 mph N/A   Overcast
2:46 AM 46.4 °F 40.1 °F 42.8 °F 87% 29.26 in 10.0 mi SSW 15.0 mph 27.6 mph N/A   Overcast
2:53 AM 46.0 °F 39.0 °F 42.1 °F 86% 29.26 in 7.0 mi SSW 17.3 mph 27.6 mph N/A   Overcast
3:09 AM 44.6 °F 38.1 °F 42.8 °F 93% 29.26 in 5.0 mi SSW 13.8 mph 23.0 mph 0.00 in Rain Light Rain
3:18 AM 44.6 °F 37.8 °F 42.8 °F 93% 29.26 in 3.0 mi South 15.0 mph 24.2 mph 0.01 in Rain Light Rain
3:53 AM 44.1 °F 36.2 °F 42.1 °F 93% 29.26 in 3.0 mi SSW 18.4 mph 26.5 mph 0.01 in Rain Light Rain
4:53 AM 44.1 °F 36.8 °F 41.0 °F 89% 29.27 in 10.0 mi SSW 16.1 mph 24.2 mph 0.00 in   Overcast
6:53 AM 43.0 °F 35.4 °F 39.9 °F 89% 29.29 in 6.0 mi SSW 16.1 mph 24.2 mph 0.01 in Rain Light Rain
7:53 AM 42.1 °F 34.2 °F 39.9 °F 92% 29.31 in 5.0 mi SSW 16.1 mph 25.3 mph 0.03 in Rain Light Rain
8:20 AM 42.8 °F 36.2 °F 39.2 °F 87% 29.32 in 2.5 mi SSW 12.7 mph 21.9 mph 0.01 in Rain Light Rain
8:24 AM 42.8 °F 36.6 °F 39.2 °F 87% 29.32 in 2.5 mi SW 11.5 mph 18.4 mph 0.01 in Rain Light Rain
8:26 AM 42.8 °F 35.1 °F 39.2 °F 87% 29.32 in 3.0 mi SW 16.1 mph 24.2 mph 0.02 in Rain Light Rain
8:33 AM 42.8 °F 34.5 °F 39.2 °F 87% 29.33 in 3.0 mi SW 18.4 mph 24.2 mph 0.02 in Rain Light Rain
8:39 AM 41.0 °F 32.5 °F 39.2 °F 93% 29.34 in 3.0 mi SW 17.3 mph 25.3 mph 0.03 in Rain Rain
8:53 AM 41.0 °F 33.1 °F 39.0 °F 93% 29.34 in 4.0 mi SW 15.0 mph 23.0 mph 0.04 in Rain Rain
9:23 AM 41.0 °F 32.8 °F 39.2 °F 93% 29.35 in 5.0 mi SSW 16.1 mph 23.0 mph 0.03 in Rain Light Rain
9:53 AM 41.0 °F 33.5 °F 39.0 °F 93% 29.37 in 4.0 mi SSW 13.8 mph 19.6 mph 0.05 in Rain Light Rain
10:53 AM 43.0 °F 36.8 °F 41.0 °F 93% 29.39 in 6.0 mi SW 11.5 mph 20.7 mph 0.04 in Rain Light Rain
11:14 AM 44.6 °F 37.2 °F 42.8 °F 93% 29.40 in 6.0 mi SW 17.3 mph 32.2 mph 0.02 in Rain Light Rain
11:53 AM 44.1 °F 37.1 °F 41.0 °F 89% 29.42 in 8.0 mi WSW 15.0 mph 36.8 mph 0.04 in Rain Light Rain
12:49 PM 42.8 °F 34.3 °F 39.2 °F 87% 29.45 in 5.0 mi WSW 19.6 mph 28.8 mph 0.02 in Rain Light Rain
12:53 PM 43.0 °F 33.5 °F 39.9 °F 89% 29.46 in 3.0 mi WSW 24.2 mph 33.4 mph 0.03 in Rain Light Rain
1:21 PM 42.8 °F 33.5 °F 39.2 °F 87% 29.46 in 9.0 mi WSW 23.0 mph 32.2 mph 0.00 in   Overcast
1:53 PM 43.0 °F 35.1 °F 39.9 °F 89% 29.48 in 10.0 mi WSW 17.3 mph 31.1 mph 0.00 in   Overcast
2:53 PM 43.0 °F 34.8 °F 39.9 °F 89% 29.52 in 5.0 mi WSW 18.4 mph 34.5 mph 0.06 in Rain Rain
4:53 PM 44.1 °F 36.2 °F 39.9 °F 85% 29.61 in 10.0 mi WSW 18.4 mph 28.8 mph 0.04 in   Overcast
5:53 PM 44.1 °F 36.5 °F 39.9 °F 85% 29.65 in 10.0 mi WSW 17.3 mph 34.5 mph 0.01 in   Overcast
8:39 PM 42.8 °F 33.8 °F 39.2 °F 87% 29.77 in 10.0 mi WSW 21.9 mph 29.9 mph N/A   Overcast
8:53 PM 43.0 °F 34.8 °F 39.9 °F 89% 29.80 in 10.0 mi WSW 18.4 mph 26.5 mph N/A   Overcast
9:53 PM 43.0 °F 36.4 °F 39.9 °F 89% 29.82 in 10.0 mi WSW 12.7 mph 26.5 mph N/A   Overcast
10:53 PM 43.0 °F 35.1 °F 39.0 °F 86% 29.85 in 10.0 mi WSW 17.3 mph 27.6 mph N/A   Overcast
11:53 PM 43.0 °F 35.7 °F 39.0 °F 86% 29.87 in 10.0 mi West 15.0 mph 23.0 mph N/A   Overcast